Date String (YYYY-MM-DD hh:mm:ss) UTC,Instrument flags,Ambient pressure (hPa),Sample flow (lpm),Bypass flow (lpm),Sample temperature (°C),Ambient temperature (°C),ASC tube jacket temperature (°C),LED temperature (°C),Box temperature (°C),Sample RH (%),Mass concentration (μg/m³),Mass concentration (μg/m³)
DateTimeUTC,F1_M11,P_M11,Q1_M11,Q2_M11,T1_M11,T2_M11,T3_M11,T4_M11,T5_M11,U1_M11,X0_M11,X2_M11
2021-08-12 10:00:00,FlowAlarm;OPCInstrumentWarning,0828.0,4.99,0.00,29.6,28.5,00.0,38.9,31.6,13.1,0035.74,0024.65
2021-08-12 10:01:00,FlowAlarm;OPCInstrumentWarning,0828.0,5.01,0.00,29.7,28.6,00.0,38.9,31.6,13.1,0035.86,0024.72
2021-08-12 10:02:00,FlowAlarm;OPCInstrumentWarning,0828.0,5.00,0.00,29.7,28.7,00.0,38.9,31.6,13.1,0035.25,0024.69
2021-08-12 10:03:00,FlowAlarm;OPCInstrumentWarning,0828.1,5.00,0.00,29.7,28.7,00.0,38.9,31.7,13.1,0035.88,0024.74
2021-08-12 10:04:00,FlowAlarm;OPCInstrumentWarning,0828.1,5.00,0.00,29.8,28.8,00.0,38.9,31.7,13.1,0036.37,0024.80
2021-08-12 10:05:00,FlowAlarm;OPCInstrumentWarning,0828.1,5.00,0.00,29.8,28.8,00.0,38.9,31.7,13.0,0036.39,0024.71
2021-08-12 10:06:00,FlowAlarm;OPCInstrumentWarning,0828.1,4.99,0.00,29.8,28.9,00.0,38.9,31.8,12.9,0036.32,0024.72
2021-08-12 10:07:00,FlowAlarm;OPCInstrumentWarning,0828.1,5.01,0.00,29.9,28.9,00.0,38.9,31.7,12.9,0035.62,0024.74
2021-08-12 10:08:00,FlowAlarm;OPCInstrumentWarning,0828.1,4.99,0.00,29.9,29.0,00.0,39.0,31.8,12.9,0036.13,0024.80
2021-08-12 10:09:00,FlowAlarm;OPCInstrumentWarning,0828.1,5.02,0.00,29.9,29.0,00.0,39.0,31.9,12.8,0036.04,0024.83
2021-08-12 10:10:00,FlowAlarm;OPCInstrumentWarning,0828.0,4.98,0.00,29.9,29.1,00.0,39.0,31.9,12.8,0036.28,0024.81
2021-08-12 10:11:00,FlowAlarm;OPCInstrumentWarning,0828.0,5.01,0.00,30.0,29.0,00.0,39.0,31.9,12.8,0036.27,0024.79
2021-08-12 10:12:00,FlowAlarm;OPCInstrumentWarning,0828.1,5.00,0.00,29.9,27.6,00.0,39.0,31.5,12.8,0035.98,0024.74
2021-08-12 10:13:00,FlowAlarm;OPCInstrumentWarning,0828.0,5.01,0.00,29.8,26.6,00.0,39.0,31.2,12.9,0035.68,0024.71
2021-08-12 10:14:00,FlowAlarm;OPCInstrumentWarning,0828.0,5.00,0.00,29.7,26.7,00.0,39.0,31.3,13.0,0035.18,0024.70
2021-08-12 10:15:00,FlowAlarm;OPCInstrumentWarning,0828.0,4.99,0.00,29.6,27.0,00.0,38.9,31.3,13.1,0035.18,0024.70
2021-08-12 10:16:00,FlowAlarm;OPCInstrumentWarning,0828.0,5.00,0.00,29.5,27.4,00.0,38.9,31.3,13.1,0034.89,0024.68
2021-08-12 10:17:00,FlowAlarm;OPCInstrumentWarning,0828.1,5.01,0.00,29.5,27.7,00.0,38.9,31.3,13.1,0034.50,0024.72
2021-08-12 10:18:00,FlowAlarm;OPCInstrumentWarning,0828.0,4.98,0.00,29.6,27.9,00.0,38.9,31.4,13.1,0034.90,0024.72
2021-08-12 10:19:00,FlowAlarm;OPCInstrumentWarning,0828.0,5.01,0.00,29.6,28.1,00.0,38.9,31.4,13.0,0034.74,0024.69
2021-08-12 10:20:00,FlowAlarm;OPCInstrumentWarning,0828.1,5.01,0.00,29.6,28.3,00.0,38.9,31.5,13.1,0034.79,0024.65
2021-08-12 10:21:00,FlowAlarm;OPCInstrumentWarning,0828.0,4.99,0.00,29.6,28.4,00.0,38.9,31.5,13.1,0034.48,0024.66
2021-08-12 10:22:00,FlowAlarm;OPCInstrumentWarning,0828.0,5.00,0.00,29.6,28.5,00.0,38.9,31.6,13.0,0034.60,0024.65
2021-08-12 10:23:00,FlowAlarm;OPCInstrumentWarning,0828.1,5.01,0.00,29.7,28.6,00.0,38.9,31.6,13.0,0034.90,0024.69
2021-08-12 10:24:00,FlowAlarm;OPCInstrumentWarning,0828.1,5.00,0.00,29.7,28.7,00.0,38.9,31.7,13.0,0034.86,0024.73
2021-08-12 10:25:00,FlowAlarm;OPCInstrumentWarning,0828.1,5.00,0.00,29.7,28.8,00.0,38.9,31.7,12.8,0034.46,0024.64
2021-08-12 10:26:00,FlowAlarm;OPCInstrumentWarning,0828.1,5.00,0.00,29.8,28.8,00.0,38.9,31.7,12.7,0034.33,0024.58
2021-08-12 10:27:00,FlowAlarm;OPCInstrumentWarning,0828.1,5.01,0.00,29.8,28.9,00.0,38.9,31.8,12.7,0034.45,0024.65
2021-08-12 10:28:00,FlowAlarm;OPCInstrumentWarning,0828.2,4.99,0.00,29.8,28.9,00.0,39.0,31.8,12.6,0034.48,0024.61
2021-08-12 10:29:00,FlowAlarm;OPCInstrumentWarning,0828.3,5.02,0.00,29.9,29.0,00.0,39.0,31.8,12.5,0033.75,0024.56
2021-08-12 10:30:00,FlowAlarm;OPCInstrumentWarning,0828.5,4.99,0.00,29.9,29.1,00.0,39.0,31.9,13.7,0033.20,0024.49
2021-08-12 10:31:00,FlowAlarm;OPCInstrumentWarning,0828.5,5.00,0.00,29.9,29.1,00.0,39.0,31.9,14.6,0033.32,0024.63
2021-08-12 10:32:00,FlowAlarm;OPCInstrumentWarning,0828.5,5.00,0.00,30.0,29.2,00.0,39.0,31.9,15.3,0033.83,0024.85
2021-08-12 10:33:00,FlowAlarm;OPCInstrumentWarning,0828.4,5.01,0.00,30.0,29.2,00.0,39.1,32.0,15.1,0034.17,0025.12
2021-08-12 10:34:00,FlowAlarm;OPCInstrumentWarning,0828.3,4.99,0.00,30.0,29.2,00.0,39.1,32.0,14.8,0034.05,0025.28
2021-08-12 10:35:00,FlowAlarm;OPCInstrumentWarning,0828.5,5.01,0.00,30.1,28.6,00.0,39.1,31.8,15.0,0034.13,0025.40
2021-08-12 10:36:00,FlowAlarm;OPCInstrumentWarning,0828.4,4.99,0.00,29.9,26.5,00.0,39.1,31.3,15.0,0034.49,0025.59
2021-08-12 10:37:00,FlowAlarm;OPCInstrumentWarning,0828.5,5.01,0.00,29.7,25.5,00.0,39.0,31.0,15.1,0035.21,0025.70
2021-08-12 10:38:00,FlowAlarm;OPCInstrumentWarning,0828.6,5.01,0.00,29.6,25.8,00.0,38.9,31.0,15.1,0035.77,0025.79
2021-08-12 10:39:00,FlowAlarm;OPCInstrumentWarning,0828.8,4.98,0.00,29.4,26.3,00.0,38.9,31.0,15.5,0035.84,0025.87
2021-08-12 10:40:00,FlowAlarm;OPCInstrumentWarning,0828.8,5.01,0.00,29.4,26.7,00.0,38.8,31.1,16.1,0036.31,0026.00
2021-08-12 10:41:00,FlowAlarm;OPCInstrumentWarning,0828.9,5.00,0.00,29.4,27.2,00.0,38.8,31.2,16.6,0036.44,0026.13
2021-08-12 10:42:00,FlowAlarm;OPCInstrumentWarning,0829.0,5.00,0.00,29.4,27.5,00.0,38.8,31.2,16.6,0036.49,0026.10
2021-08-12 10:43:00,FlowAlarm;OPCInstrumentWarning,0828.8,5.01,0.00,29.4,27.8,00.0,38.7,31.3,16.5,0036.91,0025.99
2021-08-12 10:44:00,FlowAlarm;OPCInstrumentWarning,0828.9,4.99,0.00,29.4,28.0,00.0,38.7,31.4,16.7,0036.67,0025.77
2021-08-12 10:45:00,FlowAlarm;OPCInstrumentWarning,0828.8,5.00,0.00,29.4,28.2,00.0,38.7,31.4,16.6,0036.50,0025.66
2021-08-12 10:46:00,FlowAlarm;OPCInstrumentWarning,0829.2,4.99,0.00,29.5,28.3,00.0,38.7,31.4,15.7,0036.51,0025.51
2021-08-12 10:47:00,FlowAlarm;OPCInstrumentWarning,0829.2,5.01,0.00,29.5,28.4,00.0,38.7,31.4,15.6,0036.55,0025.29
2021-08-12 10:48:00,FlowAlarm;OPCInstrumentWarning,0829.1,5.01,0.00,29.5,28.5,00.0,38.7,31.5,15.6,0035.41,0025.17
2021-08-12 10:49:00,FlowAlarm;OPCInstrumentWarning,0829.1,4.98,0.00,29.5,28.6,00.0,38.7,31.5,15.6,0035.05,0025.06
2021-08-12 10:50:00,FlowAlarm;OPCInstrumentWarning,0829.0,5.00,0.00,29.6,28.7,00.0,38.8,31.5,15.3,0036.43,0024.99
2021-08-12 10:51:00,FlowAlarm;OPCInstrumentWarning,0828.7,5.01,0.00,29.6,28.8,00.0,38.8,31.6,15.0,0036.58,0024.87
2021-08-12 10:52:00,FlowAlarm;OPCInstrumentWarning,0828.7,4.99,0.00,29.7,28.8,00.0,38.8,31.7,15.1,0036.21,0024.71
2021-08-12 10:53:00,FlowAlarm;OPCInstrumentWarning,0828.7,5.01,0.00,29.7,28.9,00.0,38.8,31.7,14.9,0035.47,0024.55
2021-08-12 10:54:00,FlowAlarm;OPCInstrumentWarning,0828.9,5.00,0.00,29.7,28.9,00.0,38.8,31.7,15.0,0034.49,0024.40
2021-08-12 10:55:00,FlowAlarm;OPCInstrumentWarning,0829.3,5.00,0.00,29.8,29.0,00.0,38.9,31.8,15.0,0035.01,0024.32
2021-08-12 10:56:00,FlowAlarm;OPCInstrumentWarning,0829.3,5.00,0.00,29.8,29.0,00.0,38.9,31.7,14.8,0035.60,0024.16
2021-08-12 10:57:00,FlowAlarm;OPCInstrumentWarning,0829.3,5.01,0.00,29.8,29.1,00.0,38.9,31.8,14.7,0035.84,0024.08
2021-08-12 10:58:00,FlowAlarm;OPCInstrumentWarning,0829.0,4.99,0.00,29.9,29.1,00.0,38.9,31.9,14.4,0035.30,0024.09
2021-08-12 10:59:00,FlowAlarm;OPCInstrumentWarning,0828.8,5.00,0.00,29.9,29.2,00.0,39.0,31.9,14.1,0035.59,0023.98
